Location: Franzen
(48.6167°N, 15.3833°E)
Time: 18:42:33
(UTC+00:00)

Altair - Pass Details

Date: 10 August 2021
Orbit: 1501 x 1682 km, 47.2° (Epoch: 19 September)

Event Time Altitude Azimuth Distance (km) Brightness Sun altitude
Rises 06:29:34 0° 283° (WNW) 4,651 9.5 25.7°
Reaches altitude 10° 06:35:52 10° 251° (WSW) 3,651 9.1 26.7°
Maximum altitude 06:38:00 11° 237° (WSW) 3,569 9.1 27.0°
Drops below altitude 10° 06:40:09 10° 223° (SW) 3,647 9.2 27.4°
Sets 06:46:29 0° 191° (SSW) 4,638 10.0 28.4°
